SCP
0 0 0 0 0 0 0 0 0 -0 -0 0 0 0 0 0 0 0 0 0 0 0 0 0 0 0 0 0 0 0 0 0 -0 0 0 0 0 0 0 0 0 -0 -0 0 0 0 0 0 0 0 0 0 0 0
0 0 0 0 0 0 0 0 -0 -0 0 0 0 0 0 0 0 0 0 0 0 0 0 0 0 0 0 0 0 0 -0 -0 -0 0 0 0 0 0 0 0 -0 0 0 0 0 0 0 0 0 0 0 0 0 0
0 0 0 0 0 0 0 -0 -0 0 0 0 0 0 0 0 0 0 0 0 0 0 0 0 0 0 0 0 0 0 0 -0 -0 -0 0 0 0 0 0 0 0 0 0 0 0 0 0 0 0 0 0 0 0 0
0 0 0 0 0 0 -0 -0 0 0 0 0 0 0 0 0 0 0 0 0 0 0 0 0 0 0 0 0 0 0 0 -0 -0 -0 -0 0 0 -0 0 0 0 0 0 0 0 0 0 0 0 0 0 0 0 0
0 0 0 0 0 0 0 -0 0 0 0 0 0 0 0 0 0 0 0 0 0 0 0 0 0 0 0 0 0 0 0 0 0 0 0 0 -0 0 0 0 0 0 0 0 0 0 0 0 0 0 0 0 0 0
0 0 0 0 0 0 0 -0 0 0 0 0 0 0 0 0 0 0 0 0 0 0 0 0 0 0 0 0 0 0 0 0 0 0 0 0 0 0 0 0 0 0 0 0 0 0 0 0 0 0 0 0 0 0
0 -0 0 0 0 0 0 0 0 -0 0 0 0 0 0 0 0 0 0 0 0 0 0 0 0 0 0 0 0 0 0 0 0 0 0 0 0 0 0 0 -0 -0 -0 -0 -0 0 -0 0 0 0 0 0 0 0
-0 -0 0 0 0 0 0 0 -0 -0 0 -0 0 0 0 0 0 0 0 0 0 0 0 0 0 0 0 0 0 0 0 0 0 0 0 0 0 0 0 -0 -0 -0 -0 0 -0 0 0 -0 0 0 0 0 0 0
-0 -0 0 0 0 0 0 -0 -0 0 0 -0 0 0 0 0 0 0 0 0 0 0 0 0 0 0 0 0 0 0 0 0 0 0 0 0 0 0 0 0 -0 -0 -0 -0 0 0 0 0 0 0 0 0 0 0
-0 -0 -0 0 0 -0 -0 0 0 -0 -0 0 0 0 0 0 -0 0 0 0 0 0 0 0 0 0 0 0 0 0 0 0 0 0 0 0 0 0 0 0 -0 -0 -0 -0 -0 -0 0 0 0 0 0 0 0 0
-0 -0 -0 0 0 -0 0 0 0 0 0 0 0 0 0 0 0 0 0 0 0 0 0 0 0 0 0 0 0 0 0 0 0 0 0 0 0 0 0 0 0 -0 -0 0 0 -0 -0 0 0 0 0 0 0 0
-0 -0 -0 0 -0 0 0 0 0 0 -0 0 0 0 0 0 0 -0 0 0 0 0 0 0 0 0 0 0 0 0 0 0 0 0 0 0 0 0 0 0 0 0 -0 -0 -0 -0 -0 -0 0 0 0 0 0 0
-0 -0 -0 -0 -0 -0 -0 0 0 0 0 0 0 0 0 0 0 0 0 0 0 0 0 0 0 0 0 0 0 0 0 0 0 0 0 0 0 0 0 0 0 0 0 -0 -0 -0 -0 -0 -0 -0 -0 0 0 0
-0 -0 -0 -0 -0 0 -0 0 0 0 0 0 0 0 0 0 0 0 -0 -0 -0 0 0 0 0 0 0 0 0 0 0 0 0 0 0 0 0 0 -0 0 0 0 0 -0 0 0 -0 0 0 0 -0 0 0 0
-0 -0 -0 -0 0 0 0 0 0 0 0 0 0 0 0 0 0 0 0 -0 -0 0 -0 0 0 0 0 0 0 0 0 0 0 0 0 0 0 0 0 -0 -0 0 0 0 -0 -0 -0 -0 -0 -0 -0 -0 0 0
-0 -0 0 0 0 -0 0 0 0 0 0 0 0 0 -0 -0 -0 0 0 -0 -0 -0 -0 0 0 0 0 0 0 0 0 0 0 0 0 0 0 0 0 -0 0 0 0 0 -0 0 -0 -0 -0 -0 -0 -0 -0 -0
-0 0 -0 0 -0 -0 -0 0 0 0 0 0 0 0 0 0 0 0 0 0 0 0 0 0 0 0 0 0 0 0 0 0 0 0 0 0 0 0 -0 -0 -0 -0 0 0 0 0 0 -0 -0 0 0 -0 -0 -0
0 -0 0 -0 -0 -0 0 0 0 0 0 0 0 0 0 0 0 0 0 0 0 0 0 0 0 0 0 0 0 0 0 0 0 0 0 0 0 0 -0 -0 -0 -0 -0 -0 -0 -0 -0 0 0 0 -0 -0 0 -0
-0 -0 -0 -0 0 0 0 0 0 0 0 0 0 -0 -0 0 0 0 0 0 0 0 0 0 0 0 0 0 0 0 0 0 0 0 0 0 0 0 0 -0 -0 -0 -0 -0 -0 0 -0 0 -0 -0 -0 0 0 0
-0 -0 -0 -0 0 0 0 0 0 0 0 0 0 0 0 0 0 0 0 0 0 0 0 0 0 0 0 0 0 0 0 0 0 0 0 0 0 0 0 0 -0 -0 -0 -0 -0 0 0 0 -0 0 0 0 0 0
0 0 0 0 0 0 -0 -0 0 0 0 0 0 0 0 0 0 0 0 0 0 0 0 0 0 0 0 0 0 0 0 0 -0 0 0 0 0 0 0 0 0 0 0 0 0 0 0 0 0 0 -0 -0 0 0
0 0 0 0 0 0 0 0 0 0 0 0 0 0 0 0 0 0 0 0 0 0 0 0 0 0 0 0 0 0 0 0 -0 0 0 0 0 0 0 0 0 0 0 0 0 0 0 0 0 0 0 0 -0 -0
-0 0 0 0 0 0 0 0 0 0 0 0 0 0 0 0 0 0 0 0 0 0 0 0 0 0 0 0 0 0 0 0 0 0 0 0 0 0 0 0 0 0 0 0 0 0 0 0 0 0 0 0 0 0
0 0 -0 0 0 0 0 0 0 0 0 0 0 0 0 0 0 0 0 0 0 0 0 0 0 0 0 0 0 0 0 0 0 0 0 0 0 0 -0 0 0 0 0 -0 0 0 0 0 0 0 0 0 0 0
0 0 0 0 0 0 0 0 0 0 0 0 0 0 0 0 0 0 0 0 0 0 0 0 0 0 0 0 0 0 0 0 0 0 0 0 0 0 0 0 0 0 0 0 0 0 0 0 0 0 0 0 0 0
0 0 0 0 0 0 0 0 0 0 0 0 0 0 0 0 0 0 0 0 0 0 0 0 0 0 0 0 0 0 0 0 0 0 0 0 0 0 0 0 0 0 0 0 0 0 0 0 0 0 0 0 0 0
0 0 0 0 0 0 0 0 0 0 0 0 0 0 0 0 0 0 0 0 0 0 0 0 0 0 0 0 0 0 0 0 0 0 0 0 0 0 0 0 0 0 0 0 0 0 0 0 0 0 0 0 0 0
0 0 0 0 0 0 0 -0 -0 0 0 0 0 0 0 0 0 0 0 0 0 0 0 0 0 0 0 0 0 0 0 0 0 0 0 0 0 0 0 0 0 0 0 0 0 0 0 0 0 0 0 0 0 0
0 0 0 0 0 0 0 0 0 0 0 0 0 0 0 0 0 0 0 0 0 0 0 0 0 0 0 0 0 0 0 0 0 0 0 0 0 0 0 0 0 0 0 0 0 0 0 0 0 0 0 0 0 0
0 0 0 0 0 -0 0 0 0 0 0 0 0 0 0 0 0 0 0 0 0 0 0 0 0 0 0 0 0 0 0 0 0 0 0 0 0 0 0 0 0 0 0 0 0 0 0 -0 0 -0 0 0 0 0
0 0 0 0 0 0 0 0 0 0 0 0 0 0 0 0 0 0 0 0 0 0 0 0 0 0 0 0 0 0 0 0 0 0 0 0 0 0 0 0 0 0 0 0 0 0 0 0 0 0 0 0 0 0
0 0 0 -0 0 0 0 0 0 0 0 0 0 0 0 0 0 0 0 0 0 0 0 0 0 0 0 0 0 0 0 0 0 0 0 0 0 0 0 0 0 0 0 0 0 0 0 0 0 0 0 0 0 0
0 0 0 0 0 0 0 0 0 0 0 0 0 -0 0 0 0 0 0 0 0 0 0 0 0 0 0 0 0 0 0 0 0 0 0 0 0 0 0 0 0 0 0 0 0 0 0 0 0 0 0 0 0 0
Wind_Speed_500mb
50 54 56 59 64 67 68 67 65 62 57 54 53 53 51 47 35 32 37 33 35 21 49 39 29 21 21 18 12 34 19 19 15 6 13 9 6 9 14 19 4 19 25 23 23 26 22 40 22 13 15 32 37 44
50 54 58 63 67 67 66 61 58 53 52 51 52 52 52 46 30 23 29 25 22 43 28 39 27 34 36 38 38 14 26 32 11 10 12 10 23 15 25 14 24 10 13 12 17 25 22 35 36 36 27 18 25 28
49 55 61 65 66 63 58 53 50 48 49 50 52 56 54 33 19 13 18 23 18 25 37 34 19 18 13 22 25 14 13 14 20 29 18 12 19 19 20 22 28 30 29 16 22 32 33 30 29 29 25 22 20 23
51 57 62 63 60 53 49 48 46 47 52 59 56 50 28 21 12 1 7 13 11 5 5 9 18 14 6 12 23 32 28 28 23 25 25 12 15 29 24 34 31 29 38 32 33 34 37 51 45 42 40 35 32 32
54 58 59 57 53 47 45 44 47 53 57 57 47 21 19 20 10 10 2 10 13 2 7 17 15 20 13 12 14 18 23 19 19 9 3 4 13 14 22 20 26 40 36 28 31 56 52 50 49 43 50 53 49 43
54 56 56 51 46 43 41 46 51 55 57 47 17 14 22 18 17 6 2 9 14 8 2 4 8 11 29 11 16 10 28 14 5 1 4 9 11 4 7 8 26 59 79 84 66 80 82 77 78 62 58 48 40 43
51 53 53 46 40 37 44 49 53 55 49 19 9 15 21 15 12 5 5 10 15 4 2 7 7 10 22 17 1 6 14 4 3 4 5 5 5 9 4 13 47 70 97 110 114 97 96 98 70 61 55 53 51 55
50 50 48 38 34 38 46 49 51 47 24 14 8 8 23 14 15 12 16 14 9 5 3 5 6 4 22 8 5 3 4 6 1 5 7 4 5 4 9 40 86 80 52 31 42 81 110 87 69 70 65 61 58 54
47 45 41 32 31 41 44 45 48 27 16 16 8 9 12 14 7 10 13 18 11 2 4 5 4 6 15 4 2 5 5 2 3 4 4 3 3 3 27 72 86 79 48 39 33 29 29 52 63 64 64 60 59 63
44 40 33 27 33 38 39 42 37 20 12 13 8 4 1 10 23 12 4 6 4 1 0 6 3 4 3 4 3 5 6 0 2 2 4 2 5 59 73 91 104 108 84 46 40 37 15 27 41 55 63 67 67 68
40 34 24 25 33 37 35 43 29 9 15 12 5 8 17 18 9 5 5 6 8 3 5 7 8 6 7 4 3 4 1 4 6 5 6 9 18 55 79 87 103 107 102 96 98 98 85 14 44 37 41 48 47 53
36 28 18 25 33 35 34 36 20 13 6 12 7 3 9 7 8 8 10 11 10 9 22 22 31 6 4 7 5 14 1 3 10 10 8 9 17 70 76 78 83 106 99 94 95 97 108 104 67 27 20 18 21 24
32 20 14 22 28 34 34 30 27 8 4 5 6 7 7 5 12 6 6 8 9 14 31 36 23 5 9 11 7 7 10 9 9 7 8 9 46 61 65 72 76 70 94 99 82 91 97 101 103 94 76 65 82 78
28 15 13 18 24 35 36 22 21 19 8 3 5 8 4 5 8 10 16 20 36 38 43 23 18 10 6 8 8 8 8 10 8 10 6 11 49 51 52 62 70 76 58 78 88 73 79 81 77 82 89 85 88 89
26 17 15 22 29 33 26 16 21 21 15 8 4 1 6 16 23 28 29 34 40 41 41 19 7 9 10 8 8 10 8 8 5 4 6 35 35 45 45 55 60 63 68 56 56 68 57 73 73 75 73 78 83 78
26 13 29 29 24 26 14 8 14 9 9 8 8 13 22 26 29 34 37 38 41 42 37 15 10 8 10 7 8 13 8 6 9 5 17 26 34 39 46 43 48 51 56 57 54 58 50 47 63 72 71 77 69 61
19 13 32 35 13 12 23 11 5 7 7 6 11 21 26 24 28 34 36 38 37 32 16 11 12 12 8 8 7 4 5 10 22 12 12 17 27 33 38 41 41 46 43 51 44 48 51 44 50 50 53 50 50 54
12 21 27 30 18 5 8 10 5 2 3 13 10 18 18 23 29 33 35 36 29 28 20 9 16 20 7 6 12 17 27 28 28 15 4 13 21 24 30 40 38 39 36 38 44 34 44 43 47 44 44 44 51 54
19 17 17 24 14 8 7 9 6 3 3 7 9 19 25 19 24 23 30 30 32 26 26 16 9 15 14 19 22 25 28 29 30 30 25 25 29 30 31 34 34 33 33 25 37 33 33 37 39 40 39 41 44 42
20 12 11 12 12 7 2 3 6 2 7 8 14 14 18 17 16 20 23 27 24 25 24 12 13 18 20 18 18 21 24 26 24 27 29 28 27 27 27 29 31 30 30 30 31 30 30 33 29 29 34 39 39 39
13 13 10 8 5 8 9 11 3 5 9 7 13 3 16 19 14 21 16 15 22 20 18 18 21 13 5 10 17 14 22 26 24 24 25 29 27 24 24 25 25 25 26 28 30 29 33 27 37 27 29 29 27 29
13 9 4 6 5 4 6 7 9 3 1 12 8 14 14 10 13 19 13 13 11 14 13 13 17 12 5 9 11 8 13 24 26 25 21 27 27 26 25 24 23 22 23 23 24 27 25 28 29 30 24 24 24 30
6 5 4 4 4 2 6 7 6 5 3 9 2 4 10 9 8 11 7 7 7 5 7 9 14 14 17 12 15 11 6 23 29 28 23 24 24 22 22 21 19 20 18 20 20 21 23 23 25 24 24 24 22 24
8 3 8 6 5 6 6 6 1 7 7 8 5 9 8 9 12 10 6 6 9 10 4 11 16 19 9 14 14 9 15 24 28 27 22 23 25 23 20 18 15 16 17 21 17 18 20 22 22 23 23 18 23 21
6 4 8 9 9 8 5 7 6 6 9 8 3 4 3 5 6 8 7 5 10 9 14 18 24 24 25 20 15 12 16 24 26 26 21 24 24 23 21 18 18 15 16 19 23 21 20 18 18 19 19 23 14 21
2 9 8 6 8 7 6 6 5 8 4 5 4 4 8 9 6 6 2 7 10 6 6 6 24 19 24 27 22 19 19 20 21 22 19 20 20 21 23 21 21 22 18 19 20 20 18 17 18 17 16 16 23 23
7 9 14 8 13 15 10 16 16 19 6 6 6 6 8 7 5 13 10 4 4 5 5 13 15 16 20 19 17 16 15 14 10 17 12 11 13 16 20 22 21 26 8 17 14 20 19 20 19 18 17 17 18 17
13 7 12 22 26 22 15 35 22 8 13 22 11 7 3 11 4 15 14 11 8 6 9 12 12 12 15 13 14 14 14 17 14 14 20 7 10 16 19 17 13 21 6 10 15 17 17 13 15 16 16 16 15 16
18 11 17 15 22 31 11 3 13 8 13 22 11 8 7 8 14 14 13 14 10 5 13 16 17 8 17 17 11 13 14 10 14 16 19 15 16 17 18 17 16 17 16 9 13 12 19 13 13 7 12 13 13 13
11 17 28 29 23 21 9 15 26 29 26 25 20 15 16 12 11 12 15 14 15 11 11 13 16 16 16 17 17 19 21 15 13 13 16 18 14 14 15 18 17 14 16 16 15 15 20 15 11 12 11 11 11 12
10 13 12 23 25 9 12 17 23 23 23 13 16 14 8 22 41 16 15 17 19 16 11 22 22 17 15 22 21 16 17 22 16 11 12 6 13 16 19 17 12 12 13 14 15 16 16 14 12 14 14 13 12 13
15 19 19 19 22 15 13 15 19 31 25 21 8 2 9 15 11 10 21 25 25 26 19 19 20 21 17 15 18 13 11 11 13 13 11 9 14 18 13 15 12 12 12 14 14 14 13 12 12 12 13 14 14 13
15 18 8 11 14 11 8 5 17 20 24 23 28 20 26 20 14 13 14 19 19 19 18 15 15 15 17 17 18 14 3 8 17 12 11 17 17 7 11 10 15 16 16 13 12 12 12 13 13 12 11 13 13 14
Wind_Direction_500mb
315 317 320 324 323 324 323 324 323 323 323 322 323 321 319 316 321 303 292 287 257 246 273 272 261 258 270 280 299 322 326 354 349 314 315 13 321 313 287 43 182 195 196 223 236 240 235 46 342 36 44 52 38 36
318 321 324 324 324 324 324 327 327 326 327 328 326 323 320 321 316 298 289 303 302 239 264 283 274 267 258 262 269 288 300 315 9 346 357 341 313 301 318 293 165 197 232 247 240 239 290 340 2 9 23 32 29 25
322 324 324 324 325 326 328 332 329 331 331 329 329 325 320 321 313 280 276 298 302 245 277 290 304 311 238 242 240 265 300 344 356 347 319 312 308 327 323 313 330 300 316 281 266 275 295 305 318 320 333 340 336 330
324 325 327 327 328 329 334 331 330 333 330 327 330 326 333 352 355 74 282 331 321 280 297 6 17 343 320 259 243 232 264 299 304 327 329 300 300 321 314 318 312 306 310 298 293 292 284 286 285 293 300 298 298 299
326 331 330 332 331 334 335 331 332 333 332 334 337 354 3 3 57 86 20 321 3 336 328 314 341 352 19 354 242 222 248 261 288 316 264 293 320 335 326 300 285 300 310 304 297 306 311 304 292 282 270 267 272 278
331 332 333 334 333 337 337 333 336 337 335 341 9 43 17 44 95 73 247 302 329 298 255 289 323 304 357 318 25 256 245 248 263 155 266 247 240 284 267 258 279 287 290 287 283 282 284 284 285 288 291 276 267 272
332 332 334 335 337 341 337 337 339 339 338 11 68 52 37 58 64 62 8 304 326 24 30 300 11 351 6 53 135 317 298 303 254 273 253 262 244 202 269 270 278 283 276 267 263 265 269 260 256 264 266 268 266 270
330 331 336 336 342 342 340 341 343 343 358 43 93 58 33 66 32 36 360 19 62 68 48 12 335 310 4 19 63 98 74 16 279 282 275 262 291 205 255 295 311 317 316 343 275 254 247 254 253 253 255 258 259 264
329 333 337 338 344 344 345 346 349 357 41 57 59 61 42 36 6 310 350 21 30 91 44 37 359 345 340 3 31 128 113 102 278 274 259 293 300 344 311 341 343 349 0 347 357 347 250 236 240 240 243 250 254 252
331 334 336 340 344 349 348 348 356 31 84 25 25 2 158 317 324 309 311 6 29 223 27 179 207 295 284 345 272 167 195 230 319 78 180 40 343 360 2 4 7 13 27 12 8 359 304 238 230 231 237 243 252 258
333 335 335 340 346 351 355 346 355 43 34 347 242 37 358 322 341 319 315 337 354 9 213 314 267 295 233 310 307 241 350 203 27 33 359 355 1 354 2 11 16 19 20 29 33 22 18 359 230 230 235 241 248 254
335 336 333 344 352 355 358 359 14 62 54 51 67 68 335 340 13 351 10 354 350 350 326 310 335 260 169 175 219 207 261 154 56 26 21 359 351 353 359 10 19 22 23 30 34 25 26 34 63 111 122 152 130 131
339 336 333 349 1 7 8 20 21 52 242 351 20 24 18 7 37 64 328 297 304 289 310 318 347 13 203 216 248 334 32 51 80 40 5 348 349 355 1 8 15 24 27 27 34 38 41 38 45 59 66 73 81 76
344 332 331 345 350 1 2 25 40 18 351 332 52 12 56 312 330 9 346 336 341 331 318 341 62 256 356 53 3 30 57 42 40 7 354 316 340 355 6 12 13 13 21 32 31 37 52 50 50 54 59 61 68 68
346 335 336 336 344 348 352 37 43 32 21 22 79 11 346 338 18 7 355 346 345 330 324 315 52 331 37 52 37 39 25 45 58 315 283 334 346 2 10 17 11 12 11 18 26 35 47 56 55 55 60 63 62 59
349 351 353 348 347 5 31 43 29 29 24 36 31 21 359 2 2 5 357 357 349 339 332 42 45 39 24 58 38 20 28 343 337 359 14 341 1 7 10 7 11 9 9 12 21 24 37 50 55 60 64 64 65 66
355 344 341 350 334 20 32 22 45 45 51 40 339 9 25 10 4 4 2 358 351 7 7 21 23 41 53 47 30 56 343 327 346 357 8 5 2 358 1 358 5 6 9 10 19 28 31 49 57 67 68 62 63 68
337 314 344 358 3 27 21 28 59 44 86 59 9 10 21 21 8 9 11 10 10 5 25 35 60 32 64 30 10 9 358 351 343 3 39 356 358 7 1 0 2 9 11 15 12 34 38 38 40 51 56 64 65 62
326 319 333 359 16 39 3 17 343 135 56 70 10 360 8 28 19 14 18 20 26 30 35 31 51 34 40 30 5 357 357 353 338 336 352 21 19 4 4 358 358 9 12 32 30 25 38 37 39 43 44 49 50 55
323 320 331 359 17 309 30 24 281 277 48 336 3 34 358 322 7 11 26 25 25 38 43 53 52 37 31 21 6 355 359 346 339 347 354 351 356 357 9 3 0 5 15 16 38 30 31 42 41 38 37 44 45 38
359 335 339 355 315 339 334 312 65 12 352 350 354 16 344 316 31 14 357 28 36 28 44 38 28 43 16 4 352 350 358 356 344 340 346 345 340 352 1 4 7 9 18 19 24 32 34 24 18 34 39 38 35 29
302 324 26 319 303 341 295 360 334 32 279 294 303 338 277 330 32 10 313 9 57 27 26 24 9 342 330 333 335 317 337 349 336 343 348 346 347 351 358 1 9 13 16 20 23 32 30 22 17 30 31 26 43 45
358 351 321 285 270 306 272 307 284 335 259 294 208 241 277 15 45 301 264 31 84 46 14 343 314 266 263 296 293 279 308 351 342 346 346 350 343 349 351 355 10 19 7 25 22 22 25 27 22 22 25 29 31 37
332 299 304 312 251 249 249 254 237 290 302 282 321 324 326 30 326 302 325 14 28 319 268 327 321 339 291 249 312 11 348 345 338 341 347 352 347 348 344 352 4 20 5 1 32 31 20 20 19 33 29 24 36 39
283 250 242 236 243 257 259 308 315 301 276 285 296 229 252 345 296 289 273 62 29 15 8 19 15 342 332 335 342 21 26 355 348 338 2 354 350 350 353 349 10 23 13 4 10 15 18 26 26 23 40 40 34 31
15 197 225 259 190 261 296 269 265 279 332 280 262 1 295 269 241 249 44 49 29 2 323 267 351 313 321 346 355 347 352 354 358 351 358 357 359 360 357 352 346 16 12 2 6 11 11 19 31 28 43 40 32 36
258 213 217 224 276 259 274 284 287 283 308 285 327 355 75 265 289 9 72 343 334 330 289 318 322 313 326 343 346 353 335 331 324 348 319 358 9 13 2 357 7 340 345 0 7 6 14 17 20 22 27 37 40 29
261 297 277 261 254 285 328 24 338 159 184 262 348 93 140 280 281 212 68 31 354 304 276 316 320 314 335 321 326 339 344 345 345 332 345 356 0 7 14 3 357 7 24 17 27 12 10 352 3 18 30 37 44 42
254 265 289 314 303 298 69 139 268 226 218 286 320 349 298 81 58 2 25 32 356 323 351 10 338 304 319 321 298 310 309 338 359 345 348 353 354 6 4 3 6 6 9 359 357 21 33 35 26 39 24 26 38 38
263 243 257 281 292 322 206 284 269 322 334 323 317 335 21 67 86 45 12 20 10 30 28 342 324 316 326 332 351 360 359 5 12 8 353 359 359 357 358 352 351 356 0 1 3 5 10 15 9 13 26 25 24 21
274 300 292 293 301 262 275 276 328 326 305 325 308 321 59 94 40 38 16 15 8 360 348 351 344 353 360 358 350 348 349 358 19 26 13 19 12 11 2 350 352 3 9 3 3 5 2 3 3 11 18 15 12 8
280 291 304 314 313 293 320 6 340 318 313 313 293 124 70 81 79 89 17 16 8 15 15 8 17 28 17 7 21 26 29 23 39 37 37 25 1 343 344 358 11 18 10 2 2 5 3 7 7 5 5 7 8 4
262 289 314 285 298 313 205 324 326 312 320 49 27 343 48 51 55 52 22 16 20 13 13 18 23 30 36 28 22 12 115 334 342 354 349 323 355 42 50 24 22 12 1 353 1 1 9 8 5 0 1 5 6 8
Wind_Speed_850mb
50 54 56 59 64 67 68 67 65 62 57 54 53 53 51 47 35 32 37 33 35 21 49 39 29 21 21 18 12 34 19 19 15 6 13 9 6 9 14 19 4 19 25 23 23 26 22 40 22 13 15 32 37 44
50 54 58 63 67 67 66 61 58 53 52 51 52 52 52 46 30 23 29 25 22 43 28 39 27 34 36 38 38 14 26 32 11 10 12 10 23 15 25 14 24 10 13 12 17 25 22 35 36 36 27 18 25 28
49 55 61 65 66 63 58 53 50 48 49 50 52 56 54 33 19 13 18 23 18 25 37 34 19 18 13 22 25 14 13 14 20 29 18 12 19 19 20 22 28 30 29 16 22 32 33 30 29 29 25 22 20 23
51 57 62 63 60 53 49 48 46 47 52 59 56 50 28 21 12 1 7 13 11 5 5 9 18 14 6 12 23 32 28 28 23 25 25 12 15 29 24 34 31 29 38 32 33 34 37 51 45 42 40 35 32 32
54 58 59 57 53 47 45 44 47 53 57 57 47 21 19 20 10 10 2 10 13 2 7 17 15 20 13 12 14 18 23 19 19 9 3 4 13 14 22 20 26 40 36 28 31 56 52 50 49 43 50 53 49 43
54 56 56 51 46 43 41 46 51 55 57 47 17 14 22 18 17 6 2 9 14 8 2 4 8 11 29 11 16 10 28 14 5 1 4 9 11 4 7 8 26 59 79 84 66 80 82 77 78 62 58 48 40 43
51 53 53 46 40 37 44 49 53 55 49 19 9 15 21 15 12 5 5 10 15 4 2 7 7 10 22 17 1 6 14 4 3 4 5 5 5 9 4 13 47 70 97 110 114 97 96 98 70 61 55 53 51 55
50 50 48 38 34 38 46 49 51 47 24 14 8 8 23 14 15 12 16 14 9 5 3 5 6 4 22 8 5 3 4 6 1 5 7 4 5 4 9 40 86 80 52 31 42 81 110 87 69 70 65 61 58 54
47 45 41 32 31 41 44 45 48 27 16 16 8 9 12 14 7 10 13 18 11 2 4 5 4 6 15 4 2 5 5 2 3 4 4 3 3 3 27 72 86 79 48 39 33 29 29 52 63 64 64 60 59 63
44 40 33 27 33 38 39 42 37 20 12 13 8 4 1 10 23 12 4 6 4 1 0 6 3 4 3 4 3 5 6 0 2 2 4 2 5 59 73 91 104 108 84 46 40 37 15 27 41 55 63 67 67 68
40 34 24 25 33 37 35 43 29 9 15 12 5 8 17 18 9 5 5 6 8 3 5 7 8 6 7 4 3 4 1 4 6 5 6 9 18 55 79 87 103 107 102 96 98 98 85 14 44 37 41 48 47 53
36 28 18 25 33 35 34 36 20 13 6 12 7 3 9 7 8 8 10 11 10 9 22 22 31 6 4 7 5 14 1 3 10 10 8 9 17 70 76 78 83 106 99 94 95 97 108 104 67 27 20 18 21 24
32 20 14 22 28 34 34 30 27 8 4 5 6 7 7 5 12 6 6 8 9 14 31 36 23 5 9 11 7 7 10 9 9 7 8 9 46 61 65 72 76 70 94 99 82 91 97 101 103 94 76 65 82 78
28 15 13 18 24 35 36 22 21 19 8 3 5 8 4 5 8 10 16 20 36 38 43 23 18 10 6 8 8 8 8 10 8 10 6 11 49 51 52 62 70 76 58 78 88 73 79 81 77 82 89 85 88 89
26 17 15 22 29 33 26 16 21 21 15 8 4 1 6 16 23 28 29 34 40 41 41 19 7 9 10 8 8 10 8 8 5 4 6 35 35 45 45 55 60 63 68 56 56 68 57 73 73 75 73 78 83 78
26 13 29 29 24 26 14 8 14 9 9 8 8 13 22 26 29 34 37 38 41 42 37 15 10 8 10 7 8 13 8 6 9 5 17 26 34 39 46 43 48 51 56 57 54 58 50 47 63 72 71 77 69 61
19 13 32 35 13 12 23 11 5 7 7 6 11 21 26 24 28 34 36 38 37 32 16 11 12 12 8 8 7 4 5 10 22 12 12 17 27 33 38 41 41 46 43 51 44 48 51 44 50 50 53 50 50 54
12 21 27 30 18 5 8 10 5 2 3 13 10 18 18 23 29 33 35 36 29 28 20 9 16 20 7 6 12 17 27 28 28 15 4 13 21 24 30 40 38 39 36 38 44 34 44 43 47 44 44 44 51 54
19 17 17 24 14 8 7 9 6 3 3 7 9 19 25 19 24 23 30 30 32 26 26 16 9 15 14 19 22 25 28 29 30 30 25 25 29 30 31 34 34 33 33 25 37 33 33 37 39 40 39 41 44 42
20 12 11 12 12 7 2 3 6 2 7 8 14 14 18 17 16 20 23 27 24 25 24 12 13 18 20 18 18 21 24 26 24 27 29 28 27 27 27 29 31 30 30 30 31 30 30 33 29 29 34 39 39 39
13 13 10 8 5 8 9 11 3 5 9 7 13 3 16 19 14 21 16 15 22 20 18 18 21 13 5 10 17 14 22 26 24 24 25 29 27 24 24 25 25 25 26 28 30 29 33 27 37 27 29 29 27 29
13 9 4 6 5 4 6 7 9 3 1 12 8 14 14 10 13 19 13 13 11 14 13 13 17 12 5 9 11 8 13 24 26 25 21 27 27 26 25 24 23 22 23 23 24 27 25 28 29 30 24 24 24 30
6 5 4 4 4 2 6 7 6 5 3 9 2 4 10 9 8 11 7 7 7 5 7 9 14 14 17 12 15 11 6 23 29 28 23 24 24 22 22 21 19 20 18 20 20 21 23 23 25 24 24 24 22 24
8 3 8 6 5 6 6 6 1 7 7 8 5 9 8 9 12 10 6 6 9 10 4 11 16 19 9 14 14 9 15 24 28 27 22 23 25 23 20 18 15 16 17 21 17 18 20 22 22 23 23 18 23 21
6 4 8 9 9 8 5 7 6 6 9 8 3 4 3 5 6 8 7 5 10 9 14 18 24 24 25 20 15 12 16 24 26 26 21 24 24 23 21 18 18 15 16 19 23 21 20 18 18 19 19 23 14 21
2 9 8 6 8 7 6 6 5 8 4 5 4 4 8 9 6 6 2 7 10 6 6 6 24 19 24 27 22 19 19 20 21 22 19 20 20 21 23 21 21 22 18 19 20 20 18 17 18 17 16 16 23 23
7 9 14 8 13 15 10 16 16 19 6 6 6 6 8 7 5 13 10 4 4 5 5 13 15 16 20 19 17 16 15 14 10 17 12 11 13 16 20 22 21 26 8 17 14 20 19 20 19 18 17 17 18 17
13 7 12 22 26 22 15 35 22 8 13 22 11 7 3 11 4 15 14 11 8 6 9 12 12 12 15 13 14 14 14 17 14 14 20 7 10 16 19 17 13 21 6 10 15 17 17 13 15 16 16 16 15 16
18 11 17 15 22 31 11 3 13 8 13 22 11 8 7 8 14 14 13 14 10 5 13 16 17 8 17 17 11 13 14 10 14 16 19 15 16 17 18 17 16 17 16 9 13 12 19 13 13 7 12 13 13 13
11 17 28 29 23 21 9 15 26 29 26 25 20 15 16 12 11 12 15 14 15 11 11 13 16 16 16 17 17 19 21 15 13 13 16 18 14 14 15 18 17 14 16 16 15 15 20 15 11 12 11 11 11 12
10 13 12 23 25 9 12 17 23 23 23 13 16 14 8 22 41 16 15 17 19 16 11 22 22 17 15 22 21 16 17 22 16 11 12 6 13 16 19 17 12 12 13 14 15 16 16 14 12 14 14 13 12 13
15 19 19 19 22 15 13 15 19 31 25 21 8 2 9 15 11 10 21 25 25 26 19 19 20 21 17 15 18 13 11 11 13 13 11 9 14 18 13 15 12 12 12 14 14 14 13 12 12 12 13 14 14 13
15 18 8 11 14 11 8 5 17 20 24 23 28 20 26 20 14 13 14 19 19 19 18 15 15 15 17 17 18 14 3 8 17 12 11 17 17 7 11 10 15 16 16 13 12 12 12 13 13 12 11 13 13 14
Wind_Direction_850mb
315 317 320 324 323 324 323 324 323 323 323 322 323 321 319 316 321 303 292 287 257 246 273 272 261 258 270 280 299 322 326 354 349 314 315 13 321 313 287 43 182 195 196 223 236 240 235 46 342 36 44 52 38 36
318 321 324 324 324 324 324 327 327 326 327 328 326 323 320 321 316 298 289 303 302 239 264 283 274 267 258 262 269 288 300 315 9 346 357 341 313 301 318 293 165 197 232 247 240 239 290 340 2 9 23 32 29 25
322 324 324 324 325 326 328 332 329 331 331 329 329 325 320 321 313 280 276 298 302 245 277 290 304 311 238 242 240 265 300 344 356 347 319 312 308 327 323 313 330 300 316 281 266 275 295 305 318 320 333 340 336 330
324 325 327 327 328 329 334 331 330 333 330 327 330 326 333 352 355 74 282 331 321 280 297 6 17 343 320 259 243 232 264 299 304 327 329 300 300 321 314 318 312 306 310 298 293 292 284 286 285 293 300 298 298 299
326 331 330 332 331 334 335 331 332 333 332 334 337 354 3 3 57 86 20 321 3 336 328 314 341 352 19 354 242 222 248 261 288 316 264 293 320 335 326 300 285 300 310 304 297 306 311 304 292 282 270 267 272 278
331 332 333 334 333 337 337 333 336 337 335 341 9 43 17 44 95 73 247 302 329 298 255 289 323 304 357 318 25 256 245 248 263 155 266 247 240 284 267 258 279 287 290 287 283 282 284 284 285 288 291 276 267 272
332 332 334 335 337 341 337 337 339 339 338 11 68 52 37 58 64 62 8 304 326 24 30 300 11 351 6 53 135 317 298 303 254 273 253 262 244 202 269 270 278 283 276 267 263 265 269 260 256 264 266 268 266 270
330 331 336 336 342 342 340 341 343 343 358 43 93 58 33 66 32 36 360 19 62 68 48 12 335 310 4 19 63 98 74 16 279 282 275 262 291 205 255 295 311 317 316 343 275 254 247 254 253 253 255 258 259 264
329 333 337 338 344 344 345 346 349 357 41 57 59 61 42 36 6 310 350 21 30 91 44 37 359 345 340 3 31 128 113 102 278 274 259 293 300 344 311 341 343 349 0 347 357 347 250 236 240 240 243 250 254 252
331 334 336 340 344 349 348 348 356 31 84 25 25 2 158 317 324 309 311 6 29 223 27 179 207 295 284 345 272 167 195 230 319 78 180 40 343 360 2 4 7 13 27 12 8 359 304 238 230 231 237 243 252 258
333 335 335 340 346 351 355 346 355 43 34 347 242 37 358 322 341 319 315 337 354 9 213 314 267 295 233 310 307 241 350 203 27 33 359 355 1 354 2 11 16 19 20 29 33 22 18 359 230 230 235 241 248 254
335 336 333 344 352 355 358 359 14 62 54 51 67 68 335 340 13 351 10 354 350 350 326 310 335 260 169 175 219 207 261 154 56 26 21 359 351 353 359 10 19 22 23 30 34 25 26 34 63 111 122 152 130 131
339 336 333 349 1 7 8 20 21 52 242 351 20 24 18 7 37 64 328 297 304 289 310 318 347 13 203 216 248 334 32 51 80 40 5 348 349 355 1 8 15 24 27 27 34 38 41 38 45 59 66 73 81 76
344 332 331 345 350 1 2 25 40 18 351 332 52 12 56 312 330 9 346 336 341 331 318 341 62 256 356 53 3 30 57 42 40 7 354 316 340 355 6 12 13 13 21 32 31 37 52 50 50 54 59 61 68 68
346 335 336 336 344 348 352 37 43 32 21 22 79 11 346 338 18 7 355 346 345 330 324 315 52 331 37 52 37 39 25 45 58 315 283 334 346 2 10 17 11 12 11 18 26 35 47 56 55 55 60 63 62 59
349 351 353 348 347 5 31 43 29 29 24 36 31 21 359 2 2 5 357 357 349 339 332 42 45 39 24 58 38 20 28 343 337 359 14 341 1 7 10 7 11 9 9 12 21 24 37 50 55 60 64 64 65 66
355 344 341 350 334 20 32 22 45 45 51 40 339 9 25 10 4 4 2 358 351 7 7 21 23 41 53 47 30 56 343 327 346 357 8 5 2 358 1 358 5 6 9 10 19 28 31 49 57 67 68 62 63 68
337 314 344 358 3 27 21 28 59 44 86 59 9 10 21 21 8 9 11 10 10 5 25 35 60 32 64 30 10 9 358 351 343 3 39 356 358 7 1 0 2 9 11 15 12 34 38 38 40 51 56 64 65 62
326 319 333 359 16 39 3 17 343 135 56 70 10 360 8 28 19 14 18 20 26 30 35 31 51 34 40 30 5 357 357 353 338 336 352 21 19 4 4 358 358 9 12 32 30 25 38 37 39 43 44 49 50 55
323 320 331 359 17 309 30 24 281 277 48 336 3 34 358 322 7 11 26 25 25 38 43 53 52 37 31 21 6 355 359 346 339 347 354 351 356 357 9 3 0 5 15 16 38 30 31 42 41 38 37 44 45 38
359 335 339 355 315 339 334 312 65 12 352 350 354 16 344 316 31 14 357 28 36 28 44 38 28 43 16 4 352 350 358 356 344 340 346 345 340 352 1 4 7 9 18 19 24 32 34 24 18 34 39 38 35 29
302 324 26 319 303 341 295 360 334 32 279 294 303 338 277 330 32 10 313 9 57 27 26 24 9 342 330 333 335 317 337 349 336 343 348 346 347 351 358 1 9 13 16 20 23 32 30 22 17 30 31 26 43 45
358 351 321 285 270 306 272 307 284 335 259 294 208 241 277 15 45 301 264 31 84 46 14 343 314 266 263 296 293 279 308 351 342 346 346 350 343 349 351 355 10 19 7 25 22 22 25 27 22 22 25 29 31 37
332 299 304 312 251 249 249 254 237 290 302 282 321 324 326 30 326 302 325 14 28 319 268 327 321 339 291 249 312 11 348 345 338 341 347 352 347 348 344 352 4 20 5 1 32 31 20 20 19 33 29 24 36 39
283 250 242 236 243 257 259 308 315 301 276 285 296 229 252 345 296 289 273 62 29 15 8 19 15 342 332 335 342 21 26 355 348 338 2 354 350 350 353 349 10 23 13 4 10 15 18 26 26 23 40 40 34 31
15 197 225 259 190 261 296 269 265 279 332 280 262 1 295 269 241 249 44 49 29 2 323 267 351 313 321 346 355 347 352 354 358 351 358 357 359 360 357 352 346 16 12 2 6 11 11 19 31 28 43 40 32 36
258 213 217 224 276 259 274 284 287 283 308 285 327 355 75 265 289 9 72 343 334 330 289 318 322 313 326 343 346 353 335 331 324 348 319 358 9 13 2 357 7 340 345 0 7 6 14 17 20 22 27 37 40 29
261 297 277 261 254 285 328 24 338 159 184 262 348 93 140 280 281 212 68 31 354 304 276 316 320 314 335 321 326 339 344 345 345 332 345 356 0 7 14 3 357 7 24 17 27 12 10 352 3 18 30 37 44 42
254 265 289 314 303 298 69 139 268 226 218 286 320 349 298 81 58 2 25 32 356 323 351 10 338 304 319 321 298 310 309 338 359 345 348 353 354 6 4 3 6 6 9 359 357 21 33 35 26 39 24 26 38 38
263 243 257 281 292 322 206 284 269 322 334 323 317 335 21 67 86 45 12 20 10 30 28 342 324 316 326 332 351 360 359 5 12 8 353 359 359 357 358 352 351 356 0 1 3 5 10 15 9 13 26 25 24 21
274 300 292 293 301 262 275 276 328 326 305 325 308 321 59 94 40 38 16 15 8 360 348 351 344 353 360 358 350 348 349 358 19 26 13 19 12 11 2 350 352 3 9 3 3 5 2 3 3 11 18 15 12 8
280 291 304 314 313 293 320 6 340 318 313 313 293 124 70 81 79 89 17 16 8 15 15 8 17 28 17 7 21 26 29 23 39 37 37 25 1 343 344 358 11 18 10 2 2 5 3 7 7 5 5 7 8 4
262 289 314 285 298 313 205 324 326 312 320 49 27 343 48 51 55 52 22 16 20 13 13 18 23 30 36 28 22 12 115 334 342 354 349 323 355 42 50 24 22 12 1 353 1 1 9 8 5 0 1 5 6 8